User: anonymous   Login
Location: Unspecified
(0.0000°N, 0.0000°E)
Time: 06:12:23
(UTC+00:00)
Language:

METEOR-M - Orbit

View from above orbital plane
View from above orbital plane
View from above satellite
View from above satellite

Ground track
Ground track

The orbit data is extracted from the following two-line orbital elements,

1 35865U 09049A   15183.77984694  .00000046  00000-0  39921-4 0  9999
2 35865 098.4996 223.5673 0003642 078.0774 031.5180 14.22035329300428
Epoch (UTC): 02 July 2015 18:42:58
Eccentricity: 0.0003642
inclination: 98.4996°
perigee height: 816 km
apogee height: 821 km
right ascension of ascending node: 223.5673°
argument of perigee: 78.0774°
revolutions per day: 14.22035329
mean anomaly at epoch: 31.5180°
orbit number at epoch: 30042

The dashed part of the orbit path shows where the satellite is in the earth's shadow,  

DLR